Regional Weather Roundup
Issued by NWS

Home | Current Version | Previous Version | Graphics & Text | Print | Product List | Glossary On
Versions: 1 2 3 4 5 6 7 8 9 10 11 12 13 14 15 16 17 18 19 20 21 22 23 24 25 26 27
000
ASUS45 KTFX 240410
RWRMT
MONTANA REGIONAL WEATHER ROUNDUP
NATIONAL WEATHER SERVICE GREAT FALLS MT
1000 PM MDT MON APR 23 2018

NOTE: "FAIR" INDICATES FEW OR NO CLOUDS BELOW 12000 FEET WITH NO
SIGNIFICANT WEATHER AND/OR OBSTRUCTIONS TO VISIBILITY.

MTZ001>007-043-240500-
WEST OF THE DIVIDE

CITY           SKY/WX    TMP DP  RH WIND       PRES   REMARKS
KALISPELL      FAIR      43  25  49 CALM      30.39R
MISSOULA       FAIR      44  23  43 E7        30.41R
BUTTE          CLOUDY    34  28  79 SW5       30.43R
MULLAN PASS    FAIR      37  18  46 SE8       30.39R WCI  31
ANACONDA         N/A     37  25  60 CALM      30.43R
DEER LODGE       N/A     36  25  64 CALM      30.46R
HAMILTON         N/A     45  27  49 MISG      30.41R
RONAN            N/A     46  23  39 SW6       30.42
$$

MTZ008-052>055-240500-
SOUTHWEST MONTANA

CITY           SKY/WX    TMP DP  RH WIND       PRES   REMARKS
BOZEMAN        MOCLDY    37  31  78 SE8       30.45R WCI  31
DILLON         MOCLDY    35  27  72 N12       30.40R WCI  27
ENNIS          CLOUDY    34  30  86 N13       30.44R WCI  25
W YELLOWSTONE  CLOUDY    30  23  74 N10       30.36R WCI  21
THREE FORKS      N/A     36  32  85 CALM      30.39R
$$

MTZ009-010-012-014-046-048-049-054-240500-
EAST SLOPES AND CENTRAL MONTANA

CITY           SKY/WX    TMP DP  RH WIND       PRES   REMARKS
CUT BANK       FAIR      40  21  46 CALM      30.42R
GREAT FALLS    FAIR      41  20  43 CALM      30.44R
MALMSTROM AFB  FAIR      43  19  38 CALM      30.45R
HELENA         FAIR      41  29  62 SW5       30.43R
CHOTEAU          N/A     39  25  56 S7        30.45R
WHITE SULPHUR    N/A     28  28 100 CALM      30.43R
$$

MTZ011-013-016-021-045-047-050-051-240500-
NORTH CENTRAL MONTANA

CITY           SKY/WX    TMP DP  RH WIND       PRES   REMARKS
HAVRE          FAIR      37  28  70 S7        30.42R WCI  32
LEWISTOWN      FAIR      34  32  92 S6        30.44R WCI  29
N BAR RANCH    FAIR      34  32  93 CALM      30.46R
$$

MTZ017>020-022>027-061-062-240500-
NORTHEAST MONTANA

CITY           SKY/WX    TMP DP  RH WIND       PRES   REMARKS
GLASGOW        CLOUDY    47  23  38 NE5       30.39R
GLENDIVE       CLOUDY    40  35  83 NW9       30.39R
JORDAN           N/A     40  33  76 CALM      30.41R
MALTA          CLEAR     45  27  49 N10       30.39R
SIDNEY         FAIR      43  27  53 N8        30.37R
WOLF POINT     FAIR      36  24  62 CALM      30.39R
PLENTYWOOD       N/A     39  27  60 CALM      30.37R
POPLAR           N/A     41  21  45 N3        30.40R
SCOBEY           N/A     36  17  46 MISG      30.34R
$$

MTZ028>42-056>058-240500-
SOUTHCENTRAL AND SOUTHEAST MONTANA

CITY           SKY/WX    TMP DP  RH WIND       PRES   REMARKS
BAKER          LGT SNOW  32  32 100 NW9       30.38R VSB 1   WCI  24
BILLINGS       FLURRIES  36  35  96 SW9       30.47R WCI  29
LIVINGSTON     MOCLDY    34  31  88 E8        30.45R WCI  27
MILES CITY     LGT RAIN  35  35 100 SW9       30.44S WCI  28
BIG TIMBER     PTCLDY    32  32 100 S5        30.48R
EKALAKA          N/A     31  28  88 NW7       30.30R VSB 0   WCI  24
FORSYTH          N/A     36  36 100 S3        30.46R
$$

REGIONAL REPORTS...DAKOTAS

CITY           SKY/WX    TMP DP  RH WIND       PRES   REMARKS
WILLISTON      FAIR      40  25  55 N6        30.35R
MINOT          CLOUDY    47  23  38 NW14      30.31R
DICKINSON      RAIN      37  35  92 NE24G30   30.27S WCI  26
BEACH          CLOUDY    37  36  93 N7        30.38R
CROSBY         FAIR      34  27  75 N5        30.37R
TIOGA          FAIR      37  23  56 N10       30.36R WCI  30
WATFORD CITY   FAIR      41  32  70 N7        30.34R
BISMARCK       CLOUDY    47  40  76 N22G29    30.26R
GRAND FORKS    MOCLDY    44  39  82 N10       30.20S
FARGO          FAIR      53  38  56 N9        30.18R
BUFFALO SD       N/A     34  31  88 NW23G30   30.23R WCI  22
RAPID CITY     CLOUDY    39  33  79 NW38G51   30.19R WCI  26
$$

REGIONAL REPORTS...WYOMING/IDAHO/WASHINGTON

CITY           SKY/WX    TMP DP  RH WIND       PRES   REMARKS
GILLETTE       CLOUDY    33  31  92 NW20      30.36R WCI  21
SHERIDAN       FLURRIES  35  33  92 NW15      30.45R WCI  25
BUFFALO WY     CLOUDY    33  29  85 NW16G28   30.40R WCI  23
CODY           FLURRIES  33  28  81 N8        30.45R WCI  26
YELLOWSTONE LA   N/A     25  19  78 VRB3      30.38R
IDAHO FALLS    MOCLDY    42  34  73 N10       30.32R
SALMON         MOCLDY    44  29  55 CALM      30.37R
BOISE          FAIR      54  28  36 NW7       30.21R
SPOKANE        FAIR      56  24  29 NE5       30.35R
$$

REGIONAL REPORTS...ALBERTA

CITY           SKY/WX    TMP DP  RH WIND       PRES   REMARKS
CALGARY        PTCLDY    45  23  42 S10       30.32R
CARDSTON         N/A     37  23  56 S3          N/A
EDMONTON       CLEAR     46  19  34 S6        30.26R
FORT MCMURRAY  CLEAR     46  19  34 S10       30.17R
LETHBRIDGE     CLEAR     39  27  60 S10G20    30.38R
LLOYDMINSTER   CLEAR     39  27  60 S6        30.30S
MEDICINE HAT   CLEAR     43  28  56 SW7       30.39R
MILK RIVER       N/A     39  25  56 S5          N/A
ONEFOUR          N/A     39  25  56 NW8         N/A
PEACE RIVER    MOCLDY    41  27  56 SW3       30.14S
PINCHER CREEK  CLEAR     37  25  60 S5        30.36S
WATERTON GATE    N/A     43  19  39 S12G17      N/A
$$

REGIONAL REPORTS...SASKATCHEWAN

CITY           SKY/WX    TMP DP  RH WIND       PRES   REMARKS
CORONACH         N/A     34  21  60 W2          N/A
CYPRESS HILLS    N/A     39  14  35 NW1         N/A
ESTEVAN        MOCLDY    34  23  64 N7        30.36R WCI  28
MOOSE JAW        N/A     36  21  55 NW5         N/A
PRINCE ALBERT  CLEAR     34  30  86 CALM      30.33R
REGINA         PTCLDY    43  23  45 NE3       30.37R
ROCKGLEN         N/A     37  19  48 NW3         N/A
SASKATOON      CLEAR     37  28  70 SW7       30.35S
SWIFT CURRENT  CLEAR     43  21  42 CALM      30.38R
VAL MARIE        N/A     36  21  55 E1          N/A
$$




USA.gov is the U.S. government's official web portal to all federal, state and local government web resources and services.